Time,TemperatureF,DewpointF,PressureIn,WindDirection,WindDirectionDegrees,WindSpeedMPH,WindSpeedGustMPH,Humidity,HourlyPrecipIn,Conditions,Clouds,dailyrainin,SolarRadiationWatts/m^2,SoftwareType,DateUTC
2013-01-14 00:12:00,20.0,18.0,-100.00,SE,126,0.0,1.0,91,-99.99,,,0.00,0.000000,,2013-01-14 08:12:00,
2013-01-14 01:12:00,20.0,18.0,-100.00,ESE,105,1.0,3.0,92,-99.99,,,0.00,0.000000,,2013-01-14 09:12:00,
2013-01-14 02:12:00,19.0,17.0,-100.00,SE,125,2.0,4.0,92,-99.99,,,0.00,0.000000,,2013-01-14 10:12:00,
2013-01-14 03:12:00,20.0,18.0,-100.00,North,1,2.0,4.0,90,-99.99,,,0.00,0.000000,,2013-01-14 11:12:00,
2013-01-14 04:12:00,18.0,16.0,-100.00,SSE,148,2.0,3.0,91,-99.99,,,0.00,0.000000,,2013-01-14 12:12:00,
2013-01-14 05:12:00,19.0,16.0,-100.00,SSE,159,1.0,3.0,90,-99.99,,,0.00,0.000000,,2013-01-14 13:12:00,
2013-01-14 06:12:00,21.0,18.0,-100.00,SSE,150,1.0,2.0,90,-99.99,,,0.00,0.000000,,2013-01-14 14:12:00,
2013-01-14 07:12:00,22.0,19.0,-100.00,East,92,2.0,3.0,89,-99.99,,,0.00,0.000000,,2013-01-14 15:12:00,
2013-01-14 08:12:00,21.0,19.0,-100.00,ESE,103,1.0,2.0,91,-99.99,,,0.00,0.000000,,2013-01-14 16:12:00,
2013-01-14 09:12:00,21.0,18.0,-100.00,NNW,328,1.0,3.0,90,-99.99,,,0.00,17.670000,,2013-01-14 17:12:00,
2013-01-14 10:12:00,23.0,20.0,-100.00,NNW,347,0.0,2.0,89,-99.99,,,-99.99,55.090000,,2013-01-14 18:12:00,
2013-01-14 12:12:00,34.0,26.0,-100.00,North,3,3.0,7.0,70,-99.99,,,0.00,276.140015,,2013-01-14 20:12:00,
2013-01-14 13:12:00,39.0,27.0,-100.00,North,350,5.0,11.0,60,-99.99,,,0.00,348.779999,,2013-01-14 21:12:00,
2013-01-14 14:12:00,43.0,27.0,-100.00,NW,319,6.0,12.0,53,-99.99,,,0.00,351.220001,,2013-01-14 22:12:00,
2013-01-14 15:12:00,42.0,28.0,-100.00,NNW,327,10.0,18.0,57,-99.99,,,0.00,253.710007,,2013-01-14 23:12:00,
2013-01-14 16:12:00,41.0,29.0,-100.00,NNW,330,9.0,16.0,61,-99.99,,,0.00,198.389999,,2013-01-15 00:12:00,
2013-01-14 17:12:00,39.0,29.0,-100.00,NNW,333,8.0,14.0,68,-99.99,,,-99.99,47.299999,,2013-01-15 01:12:00,
2013-01-14 18:12:00,37.0,29.0,-100.00,NNW,337,4.0,10.0,72,-99.99,,,0.00,1.740000,,2013-01-15 02:12:00,
2013-01-14 19:12:00,36.0,30.0,-100.00,North,350,4.0,8.0,77,-99.99,,,0.00,0.120000,,2013-01-15 03:12:00,
2013-01-14 20:12:00,36.0,31.0,-100.00,North,357,2.0,5.0,81,-99.99,,,0.00,0.120000,,2013-01-15 04:12:00,
2013-01-14 21:12:00,34.0,30.0,-100.00,ENE,67,2.0,4.0,84,-99.99,,,0.00,0.120000,,2013-01-15 05:12:00,
2013-01-14 22:12:00,37.0,32.0,-100.00,North,354,7.0,12.0,81,-99.99,,,0.00,0.120000,,2013-01-15 06:12:00,
2013-01-14 23:12:00,35.0,31.0,-100.00,NE,56,2.0,6.0,83,-99.99,,,0.00,0.120000,,2013-01-15 07:12:00,